This is the latest recevied weather packets stored in our database for station/object N4JTC. If no packets are shown the sender has not sent any weather packets the latest 10 day(s).
| Time | Temp. | Humidity | Pressure | Rain* | Wind** | Luminosity | Snow |
|---|---|---|---|---|---|---|---|
| 1777646103 | 22.78° C | 78% | 1014.2 hPa | 0 mm | - | 352 W/m² | - |
| 1777645803 | 22.78° C | 77% | 1014.2 hPa | 0 mm | - | 444 W/m² | - |
| 1777645504 | 22.22° C | 78% | 1014.3 hPa | 0 mm | - | 236 W/m² | - |
| 1777645203 | 21.67° C | 79% | 1014.5 hPa | 0 mm | - | 219 W/m² | - |
| 1777644903 | 21.67° C | 79% | 1014.3 hPa | 0 mm | - | 97 W/m² | - |
| 1777644603 | 21.67° C | 79% | 1014.2 hPa | 0 mm | - | 95 W/m² | - |
| 1777644303 | 21.67° C | 80% | 1013.6 hPa | 0 mm | - | 129 W/m² | - |
| 1777644003 | 21.67° C | 80% | 1014 hPa | 0 mm | - | 85 W/m² | - |
| 1777643702 | 21.67° C | 80% | 1013.7 hPa | 0 mm | - | 102 W/m² | - |
| 1777643103 | 21.67° C | 80% | 1013.5 hPa | 0 mm | - | 109 W/m² | - |
| 1777642503 | 21.11° C | 81% | 1013.5 hPa | 0 mm | - | 100 W/m² | - |
| 1777642203 | 21.67° C | 80% | 1014 hPa | 0 mm | - | 66 W/m² | - |
| 1777641903 | 21.67° C | 81% | 1013.6 hPa | 0 mm | - | 93 W/m² | - |
| 1777641603 | 21.67° C | 81% | 1013.4 hPa | 0 mm | - | 98 W/m² | - |
| 1777641303 | 21.67° C | 81% | 1013.6 hPa | 0 mm | - | 76 W/m² | - |
| 1777641003 | 21.11° C | 82% | 1013.6 hPa | 0 mm | - | 109 W/m² | - |
| 1777640703 | 21.67° C | 81% | 1013.3 hPa | 0 mm | - | 107 W/m² | - |
| 1777640103 | 21.11° C | 81% | 1013.3 hPa | 0 mm | - | 144 W/m² | - |
| 1777639803 | 21.11° C | 81% | 1013.4 hPa | 0 mm | - | 165 W/m² | - |
| 1777639503 | 21.11° C | 81% | 1013.4 hPa | 0 mm | - | 151 W/m² | - |
| 1777639203 | 21.11° C | 82% | 1013.5 hPa | 0 mm | - | 117 W/m² | - |
| 1777638903 | 21.11° C | 82% | 1013.5 hPa | 0 mm | - | 105 W/m² | - |
| 1777638302 | 21.11° C | 83% | 1013.5 hPa | 0 mm | - | 67 W/m² | - |
| 1777638003 | 21.11° C | 83% | 1013.5 hPa | 0 mm | - | 45 W/m² | - |
| 1777637703 | 21.11° C | 83% | 1013.4 hPa | 0 mm | - | 59 W/m² | - |
* Rain latest hour (hover to see other rain measurements)
** Current wind speed in m/s (hover to see current wind gust speed)